User: anonymous   Login
Location: Home
(42.5358°N, 72.7383°W)
Time: 00:49:45
(UTC-05:00)
Language:

VELOX 1 - Orbit

View from above orbital plane
View from above orbital plane
View from above satellite
View from above satellite

Ground track
Ground track

The orbit data is extracted from the following two-line orbital elements,

1 40057U 14034E   22027.91020881  .00001041  00000-0  15014-3 0  9990
2 40057  98.3479 195.0352 0011838  63.3222 296.9200 14.78512706408700
Epoch (UTC): 27 January 2022 21:50:42
Eccentricity: 0.0011838
inclination: 98.3479°
perigee height: 626 km
apogee height: 642 km
right ascension of ascending node: 195.0352°
argument of perigee: 63.3222°
revolutions per day: 14.78512706
mean anomaly at epoch: 296.9200°
orbit number at epoch: 40870

The dashed part of the orbit path shows where the satellite is in the earth's shadow,  

DLR